Change the Weather History Date:

Wednesday, October 3, 2012

  Actual Average (KSBY) Record (KSBY)
Temperature  
Mean Temperature 76 °F 62 °F  
Max Temperature 81 °F 73 °F 91 °F (1926)
Min Temperature 71 °F 51 °F 33 °F (2003)
Degree Days  
Heating Degree Days 0 5  
Month to date heating degree days 14  
Since 1 July heating degree days 62  
Cooling Degree Days 11 2  
Month to date cooling degree days 6  
Year to date cooling degree days 1131  
Growing Degree Days 26 (Base 50)    
Moisture  
Dew Point 73 °F    
Average Humidity 93    
Maximum Humidity 100    
Minimum Humidity 79    
Precipitation  
Precipitation 0.00 in 0.11 in 0.97 in (1979)
Month to date precipitation 0.34  
Year to date precipitation 35.39  
Snow  
Snow 0.00 in 0.00 in 0.00 in (2002)
Month to date snowfall 0.0  
Since 1 July snowfall 0.0  
Snow Depth -    
Sea Level Pressure  
Sea Level Pressure 30.05 in    
Wind  
Wind Speed 5 mph (SW)    
Max Wind Speed 9 mph    
Max Gust Speed -    
Visibility 7 miles    
Events      
T = Trace of Precipitation, MM = Missing Value Source: NWS Daily Summary

Daily Weather History Graph

Daily Weather History Graph

Search for Another Location

Airport or City:

Trip Planner

Search our weather history database for the weather conditions in past years. The results will help you decide how hot, cold, wet, or windy it might be!

Date:

Astronomy

Oct. 03, 2012 Rise Set
Actual Time 6:58 AM EDT 6:39 PM EDT
Civil Twilight 6:32 AM EDT 7:05 PM EDT
Nautical Twilight 6:01 AM EDT 7:36 PM EDT
Astronomical Twilight 5:30 AM EDT 8:07 PM EDT
Moon 8:33 PM EDT (10/3) 10:16 AM EDT (10/3)
Length of Visible Light 12h 33m
Length of Day
11h 41m
Waning Gibbous, 89% of the Moon is Illuminated
Oct 3
Waning Gibbous
Oct 8
Last Quarter
Oct 15
New
Oct 21
First Quarter
Oct 29
Full

Hourly Weather History & Observations

Time (EDT) Temp. Heat Index Dew Point Humidity Pressure Visibility Wind Dir Wind Speed Gust Speed Precip Events Conditions
12:40 AM 73.4 °F - 73.4 °F 100% 29.96 in 7.0 mi SW 5.8 mph - N/A   Overcast
12:53 AM 73.0 °F - 73.0 °F 100% 29.96 in 8.0 mi SW 5.8 mph - N/A   Overcast
1:53 AM 73.0 °F - 72.0 °F 96% 29.97 in 7.0 mi SW 4.6 mph - N/A   Scattered Clouds
2:20 AM 73.4 °F - 71.6 °F 94% 29.98 in 7.0 mi SSW 4.6 mph - N/A   Mostly Cloudy
2:53 AM 73.0 °F - 72.0 °F 96% 29.98 in 6.0 mi SSW 4.6 mph - N/A   Overcast
3:30 AM 71.6 °F - 71.6 °F 100% 29.99 in 1.8 mi SSW 5.8 mph - N/A   Overcast
3:53 AM 72.0 °F - 72.0 °F 100% 30.00 in 3.0 mi SW 9.2 mph - N/A   Overcast
4:53 AM 73.0 °F - 73.0 °F 100% 30.01 in 6.0 mi WSW 9.2 mph - N/A   Overcast
5:53 AM 73.0 °F - 73.0 °F 100% 30.02 in 5.0 mi SW 4.6 mph - N/A   Overcast
6:43 AM 73.4 °F - 73.4 °F 100% 30.03 in 5.0 mi WSW 3.5 mph - N/A   Overcast
6:53 AM 73.0 °F - 73.0 °F 100% 30.04 in 5.0 mi Calm Calm - N/A   Overcast
7:32 AM 73.4 °F - 71.6 °F 94% 30.04 in 3.0 mi Calm Calm - N/A   Mostly Cloudy
7:53 AM 73.0 °F - 73.0 °F 100% 30.05 in 3.0 mi Calm Calm - N/A   Mostly Cloudy
8:28 AM 75.2 °F - 73.4 °F 94% 30.06 in 6.0 mi Variable 3.5 mph - N/A   Scattered Clouds
8:38 AM 75.2 °F - 73.4 °F 94% 30.06 in 7.0 mi SSW 3.5 mph - N/A   Mostly Cloudy
8:53 AM 75.9 °F - 73.9 °F 94% 30.06 in 8.0 mi Variable 3.5 mph - N/A   Mostly Cloudy
9:03 AM 77.0 °F - 73.4 °F 89% 30.07 in 10.0 mi WSW 6.9 mph - N/A   Mostly Cloudy
9:12 AM 77.0 °F - 73.4 °F 89% 30.07 in 10.0 mi SW 5.8 mph - N/A   Mostly Cloudy
9:38 AM 78.8 °F - 75.2 °F 89% 30.08 in - North - - N/A   Unknown
9:53 AM - - - N/A% 30.09 in - North - - N/A   Unknown
10:53 AM 80.1 °F 84.5 °F 73.9 °F 81% 30.08 in 10.0 mi Calm Calm - N/A   Unknown
11:53 AM 78.1 °F - 73.0 °F 84% 30.08 in 10.0 mi South 6.9 mph - N/A   Partly Cloudy
12:53 PM 77.0 °F - 73.0 °F 88% 30.08 in 9.0 mi South 6.9 mph - N/A   Clear
1:53 PM 80.1 °F 84.5 °F 73.9 °F 81% 30.07 in 10.0 mi SSW 8.1 mph - N/A   Clear
2:53 PM 77.0 °F - 73.0 °F 88% 30.07 in 8.0 mi SSW 9.2 mph - N/A   Clear
3:53 PM 81.0 °F 86.2 °F 73.9 °F 79% 30.07 in 10.0 mi SW 6.9 mph - N/A   Clear
4:53 PM 79.0 °F - 73.0 °F 82% 30.08 in 10.0 mi SSW 5.8 mph - N/A   Clear
5:53 PM 77.0 °F - 73.9 °F 90% 30.08 in 9.0 mi SSW 3.5 mph - N/A   Partly Cloudy
6:53 PM 75.0 °F - 73.0 °F 94% 30.09 in 6.0 mi Calm Calm - N/A   Clear
7:53 PM 75.0 °F - 73.0 °F 94% 30.11 in 8.0 mi SW 3.5 mph - N/A   Clear
9:53 PM 73.9 °F - 73.0 °F 97% 30.13 in 8.0 mi SW 3.5 mph - N/A   Clear
10:53 PM 73.9 °F - 73.0 °F 97% 30.13 in 6.0 mi Calm Calm - N/A   Clear
11:53 PM 73.0 °F - 72.0 °F 96% 30.13 in 4.0 mi Calm Calm - N/A   Clear